Location: Betpouey
(42.8833°N, 0.0333°E)
Time: 07:47:25
(UTC+00:00)

SL-24 R/B - Pass Details

Date: 01 December 2020
Orbit: 504 x 1003 km, 97.4° (Epoch: 17 January)

Event Time Altitude Azimuth Distance (km) Brightness Sun altitude
Exits shadow 17:49:37 23° 43° (NE) 1,150 5.0 -14.8°
Maximum altitude 17:51:28 39° 98° (E) 782 4.1 -15.1°
Drops below altitude 10° 17:54:53 10° 168° (SSE) 1,711 6.4 -15.7°
Sets 17:57:02 0° 176° (S) 2,596 7.4 -16.1°
